Погода в Нитре

Словакия     48°18′48″N   18°04′54″E
темп.,
°C
ветер,
м/с
пор.,
м/с
влажн.,
%
обл.,
%
осадки,
мм/ч
давл.,
гПа
погр.,
м
6 мая, чт
чт623:00+7з61288100 0.3 1011403
02:00+5зсз41086100 0.3 1013287
05:00+4з2287100 0.0 101422
08:00+8з377117 0.0 1016554
11:00+12юз785999 0.1 10151657
14:00+12юз8961100 0.4 10141428
17:00+12ююз776079 0.1 10121413
20:00+8ю3680100 0.1 1011114
7 мая, пт
пт723:00+8вюв3778100 0.0 1010213
02:00+9юв4771100 0.0 1008214
05:00+8ю2379100 0.0 100852
08:00+10з31172100 0.0 1009561
11:00+11зсз4784100 1.5 1009548
14:00+12сз5772100 2.3 10091006
17:00+12сз81158100 0.1 10111424
20:00+7сз377689 0.3 1015111
8 мая, сб
сб823:00+5зсз37790 0.0 1018148
02:00+3сз38870 0.0 1020175
05:00+2сз38900 0.0 1021161
08:00+7ссз36690 0.0 1023396
11:00+11сз45515 0.0 10231445
14:00+14зсз244110 0.0 10222110
17:00+15юз333941 0.0 10212174
20:00+9ююв22565 0.0 102113
9 мая, вс
вс923:00+7юв33686 0.0 102329
02:00+6вюв337094 0.0 102346
05:00+5в467626 0.0 102398
08:00+9юв510655 0.0 1023399
11:00+15ююв8105026 0.0 10221085
14:00+17ююв810455 0.0 10201363
17:00+18юв811535 0.0 10191257
20:00+12вюв513710 0.0 1019295
10 мая, пн
пн1023:00+11вюв716660 0.0 1018393
02:00+10вюв816700 0.0 1017429
05:00+9вюв917770 0.0 1017467
08:00+11вюв917730 0.0 1017543
11:00+18юв1014595 0.0 1016959
14:00+21ююв81258100 0.0 10151814
17:00+21юв71265100 0.0 1015558
20:00+19юв614707 0.0 1014507